Forum


Ask a question

No. FOSS Question Date
Views
Answers
1 eSim Run setup 2016-08-07 18:46:47 13 1
2 eSim DC Analysis _reg 2016-08-04 06:36:23 25 1
3 eSim error while opening python plotting error 2016-07-21 11:00:57 40 1
4 eSim Unable to install eSim on Ubuntu 2016-07-19 09:53:03 47 1
5 eSim Injecting noise 2016-07-16 06:42:08 62 1
6 eSim execution error reg 2016-07-13 10:10:00 41 1
7 eSim Execution reg 2016-07-11 07:10:37 49 3
8 eSim regarding Lab migration project 2016-07-09 03:20:40 55 1
9 eSim python plotting window does not open up (On latest build of eSim) 2016-06-26 14:27:57 62 3
10 eSim installation reg 2016-06-24 06:54:50 59 2
11 eSim eSim not working in windows 10 2016-06-05 18:59:39 106 1
12 eSim undetaking form 2016-05-31 04:34:19 87 1
13 eSim esim training on skype 2016-05-31 04:07:35 67 1
14 eSim Problem in getting started with eSim 2016-05-06 11:46:13 85 2
15 eSim problem in creating project 2016-04-23 04:02:06 97 1
16 eSim scilab contourf plot axis scaling 2016-04-06 09:07:53 120 1
17 eSim incorect ac simulaton 2016-03-29 00:40:00 127 1
18 eSim eSim Eeschema Diode component problem. 2016-03-23 21:19:19 205 1
19 eSim unable to simulate dc power supply 2016-03-23 05:54:28 116 1
20 eSim Impossibilité de créer un subcircuit. 2016-03-22 10:03:17 100 1
21 eSim Impossibilité de créer un subcircuit. 2016-03-22 10:00:38 118 3
22 eSim Enable to find AC voltage source 2016-03-15 03:05:40 693 2
23 eSim Installation error 2016-03-10 07:19:37 139 1
24 eSim Testing Forum Reply 2016-03-01 12:21:53 141 11
25 eSim Unable to get details of source 2016-03-01 03:42:01 172 5
26 eSim Regarding footprint 2016-02-25 09:38:04 149 3
27 eSim Unable to run the simulation 2016-02-09 08:23:39 207 4
28 eSim Error while opening python plotting Editor. 2016-02-05 06:40:19 154 4
29 eSim lab migration programe 2016-01-29 10:41:49 142 1
30 eSim unable to install e sim on linux 2016-01-18 09:58:33 154 1
31 eSim unable to install e sim on linux 2016-01-18 09:58:12 179 1
32 eSim Getting errors when simulating the basic logic gates 2016-01-18 07:53:28 112 1
33 eSim Simulation of basic logic gates 2016-01-18 07:51:45 131 1
34 eSim Simulation of basic logic gates 2016-01-18 07:48:10 215 3
35 eSim Error while openinf python plotting Editor 2016-01-18 04:29:12 174 2
36 eSim about istallation on ubuntu 2016-01-11 14:23:18 148 1
37 eSim Right pane of footprint editor is empty 2015-11-25 09:59:39 174 1
38 eSim I am unable to Install eSim software. 2015-11-25 08:33:14 167 1
39 eSim Regarding IN/OUT pin configuration 2015-11-06 07:05:39 179 2
40 eSim unable to add LM741 subcircuit 2015-11-04 04:56:07 193 2
41 eSim Conduction of workshop regarding 2015-10-31 06:16:04 162 1
42 eSim unable to open esim source to place sine wave 2015-10-25 16:35:17 214 2
43 eSim Esim Not supported in Windows10-Reg 2015-10-24 04:20:12 172 1
44 eSim unable to create project 2015-10-23 18:51:20 288 2
45 eSim How to plot voltage Vs current through a diode (Diode chara.) 2015-10-23 05:51:16 237 4
46 eSim Problem regarding current direction. 2015-10-21 10:09:50 154 1
47 eSim how to measure resistance 2015-10-21 10:04:49 146 1
48 eSim Measurement of resistance in eSim. 2015-10-18 04:32:46 162 1
49 eSim To measure and plot the branch current. 2015-10-16 11:16:30 183 1
50 eSim Installation with Windows 2015-10-15 10:11:24 278 2
51 eSim Error while opening python plotting editor. 2015-10-14 05:44:47 186 2
52 eSim APR33A3 2015-10-08 17:45:51 181 1
53 eSim your schematic contains an unknown component vplot8_1 2015-09-26 13:03:37 348 1
54 eSim Your schematic contain unknown model tl072 2015-09-22 12:37:06 188 1
55 eSim WIndows installation 2015-09-22 07:36:13 382 3